Time,TemperatureF,DewpointF,PressureIn,WindDirection,WindDirectionDegrees,WindSpeedMPH,WindSpeedGustMPH,Humidity,HourlyPrecipIn,Conditions,Clouds,dailyrainin,SoftwareType,DateUTC
2013-06-28 00:02:00,65.0,-99.9,-100.00,North,-999,-999.0,-999.0,-999,0.00,,,0.04,,2013-06-28 04:02:00,
2013-06-28 00:12:00,65.0,-99.9,-100.00,North,-999,-999.0,-999.0,-999,0.00,,,0.04,,2013-06-28 04:12:00,
2013-06-28 00:43:00,65.0,-99.9,-100.00,North,-999,-999.0,-999.0,-999,0.00,,,0.04,,2013-06-28 04:43:00,
2013-06-28 00:53:00,65.0,-99.9,-100.00,North,-999,-999.0,-999.0,-999,0.00,,,0.04,,2013-06-28 04:53:00,
2013-06-28 01:02:00,65.0,-99.9,-100.00,North,-999,-999.0,-999.0,-999,0.00,,,0.04,,2013-06-28 05:02:00,
2013-06-28 01:12:00,65.0,-99.9,-100.00,North,-999,-999.0,-999.0,-999,0.00,,,0.04,,2013-06-28 05:12:00,
2013-06-28 01:43:00,65.0,-99.9,-100.00,North,-999,-999.0,-999.0,-999,0.00,,,0.04,,2013-06-28 05:43:00,
2013-06-28 01:53:00,65.0,-99.9,-100.00,North,-999,-999.0,-999.0,-999,0.00,,,0.04,,2013-06-28 05:53:00,
2013-06-28 02:02:00,65.0,-99.9,-100.00,North,-999,-999.0,-999.0,-999,0.00,,,0.04,,2013-06-28 06:02:00,
2013-06-28 02:12:00,65.0,-99.9,-100.00,North,-999,-999.0,-999.0,-999,0.00,,,0.04,,2013-06-28 06:12:00,
2013-06-28 02:43:00,63.0,-99.9,-100.00,North,-999,-999.0,-999.0,-999,0.00,,,0.04,,2013-06-28 06:43:00,
2013-06-28 02:52:00,63.0,-99.9,-100.00,North,-999,-999.0,-999.0,-999,0.00,,,0.04,,2013-06-28 06:52:00,
2013-06-28 03:02:00,63.0,-99.9,-100.00,North,-999,-999.0,-999.0,-999,0.00,,,0.04,,2013-06-28 07:02:00,
2013-06-28 03:12:00,63.0,-99.9,-100.00,North,-999,-999.0,-999.0,-999,0.00,,,0.04,,2013-06-28 07:12:00,
2013-06-28 03:43:00,64.0,-99.9,-100.00,North,-999,-999.0,-999.0,-999,0.00,,,0.04,,2013-06-28 07:43:00,
2013-06-28 03:53:00,64.0,-99.9,-100.00,North,-999,-999.0,-999.0,-999,0.00,,,0.04,,2013-06-28 07:53:00,
2013-06-28 04:02:00,64.0,-99.9,-100.00,North,-999,-999.0,-999.0,-999,0.00,,,0.04,,2013-06-28 08:02:00,
2013-06-28 04:11:00,64.0,-99.9,-100.00,North,-999,-999.0,-999.0,-999,0.00,,,0.04,,2013-06-28 08:11:00,
2013-06-28 04:43:00,62.0,-99.9,-100.00,North,-999,-999.0,-999.0,-999,0.01,,,0.05,,2013-06-28 08:43:00,
2013-06-28 04:52:00,62.0,-99.9,-100.00,North,-999,-999.0,-999.0,-999,0.01,,,0.05,,2013-06-28 08:52:00,
2013-06-28 05:02:00,62.0,-99.9,-100.00,North,-999,-999.0,-999.0,-999,0.01,,,0.05,,2013-06-28 09:02:00,
2013-06-28 05:12:00,62.0,-99.9,-100.00,North,-999,-999.0,-999.0,-999,0.01,,,0.05,,2013-06-28 09:12:00,
2013-06-28 05:42:00,61.0,-99.9,-100.00,North,-999,-999.0,-999.0,-999,0.05,,,0.10,,2013-06-28 09:42:00,
2013-06-28 05:52:00,61.0,-99.9,-100.00,North,-999,-999.0,-999.0,-999,0.05,,,0.10,,2013-06-28 09:52:00,
2013-06-28 06:02:00,61.0,-99.9,-100.00,North,-999,-999.0,-999.0,-999,0.05,,,0.10,,2013-06-28 10:02:00,
2013-06-28 06:12:00,61.0,-99.9,-100.00,North,-999,-999.0,-999.0,-999,0.05,,,0.10,,2013-06-28 10:12:00,
2013-06-28 06:42:00,60.0,-99.9,-100.00,North,-999,-999.0,-999.0,-999,0.02,,,0.12,,2013-06-28 10:42:00,
2013-06-28 06:52:00,60.0,-99.9,-100.00,North,-999,-999.0,-999.0,-999,0.02,,,0.12,,2013-06-28 10:52:00,
2013-06-28 07:02:00,60.0,-99.9,-100.00,North,-999,-999.0,-999.0,-999,0.02,,,0.12,,2013-06-28 11:02:00,
2013-06-28 07:11:00,60.0,-99.9,-100.00,North,-999,-999.0,-999.0,-999,0.02,,,0.12,,2013-06-28 11:11:00,
2013-06-28 07:43:00,59.0,-99.9,-100.00,North,-999,-999.0,-999.0,-999,0.17,,,0.29,,2013-06-28 11:43:00,
2013-06-28 07:53:00,59.0,-99.9,-100.00,North,-999,-999.0,-999.0,-999,0.17,,,0.29,,2013-06-28 11:53:00,
2013-06-28 08:02:00,59.0,-99.9,-100.00,North,-999,-999.0,-999.0,-999,0.17,,,0.29,,2013-06-28 12:02:00,
2013-06-28 08:12:00,59.0,-99.9,-100.00,North,-999,-999.0,-999.0,-999,0.17,,,0.29,,2013-06-28 12:12:00,
2013-06-28 08:44:00,59.0,-99.9,-100.00,North,-999,-999.0,-999.0,-999,0.04,,,0.33,,2013-06-28 12:44:00,
2013-06-28 08:52:00,59.0,-99.9,-100.00,North,-999,-999.0,-999.0,-999,0.04,,,0.33,,2013-06-28 12:52:00,
2013-06-28 09:02:00,59.0,-99.9,-100.00,North,-999,-999.0,-999.0,-999,0.04,,,0.33,,2013-06-28 13:02:00,
2013-06-28 09:11:00,59.0,-99.9,-100.00,North,-999,-999.0,-999.0,-999,0.04,,,0.33,,2013-06-28 13:11:00,
2013-06-28 09:53:00,61.0,-99.9,-100.00,North,-999,-999.0,-999.0,-999,0.00,,,0.33,,2013-06-28 13:53:00,
2013-06-28 10:02:00,61.0,-99.9,-100.00,North,-999,-999.0,-999.0,-999,0.00,,,0.33,,2013-06-28 14:02:00,
2013-06-28 10:12:00,61.0,-99.9,-100.00,North,-999,-999.0,-999.0,-999,0.00,,,0.33,,2013-06-28 14:12:00,
2013-06-28 10:44:00,60.0,-99.9,-100.00,North,-999,-999.0,-999.0,-999,0.02,,,0.35,,2013-06-28 14:44:00,
2013-06-28 10:53:00,60.0,-99.9,-100.00,North,-999,-999.0,-999.0,-999,0.02,,,0.35,,2013-06-28 14:53:00,
2013-06-28 11:02:00,60.0,-99.9,-100.00,North,-999,-999.0,-999.0,-999,0.02,,,0.35,,2013-06-28 15:02:00,
2013-06-28 11:11:00,60.0,-99.9,-100.00,North,-999,-999.0,-999.0,-999,0.02,,,0.35,,2013-06-28 15:11:00,
2013-06-28 11:43:00,61.0,-99.9,-100.00,North,-999,-999.0,-999.0,-999,0.04,,,0.39,,2013-06-28 15:43:00,
2013-06-28 11:53:00,61.0,-99.9,-100.00,North,-999,-999.0,-999.0,-999,0.04,,,0.39,,2013-06-28 15:53:00,
2013-06-28 12:02:00,61.0,-99.9,-100.00,North,-999,-999.0,-999.0,-999,0.04,,,0.39,,2013-06-28 16:02:00,
2013-06-28 12:11:00,61.0,-99.9,-100.00,North,-999,-999.0,-999.0,-999,0.04,,,0.39,,2013-06-28 16:11:00,
2013-06-28 12:44:00,61.0,-99.9,-100.00,North,-999,-999.0,-999.0,-999,0.00,,,0.39,,2013-06-28 16:44:00,
2013-06-28 12:53:00,61.0,-99.9,-100.00,North,-999,-999.0,-999.0,-999,0.00,,,0.39,,2013-06-28 16:53:00,
2013-06-28 13:02:00,61.0,-99.9,-100.00,North,-999,-999.0,-999.0,-999,0.00,,,0.39,,2013-06-28 17:02:00,
2013-06-28 13:12:00,61.0,-99.9,-100.00,North,-999,-999.0,-999.0,-999,0.00,,,0.39,,2013-06-28 17:12:00,
2013-06-28 13:44:00,66.0,-99.9,-100.00,North,-999,-999.0,-999.0,-999,0.00,,,0.39,,2013-06-28 17:44:00,
2013-06-28 13:52:00,66.0,-99.9,-100.00,North,-999,-999.0,-999.0,-999,0.00,,,0.39,,2013-06-28 17:52:00,
2013-06-28 14:02:00,66.0,-99.9,-100.00,North,-999,-999.0,-999.0,-999,0.00,,,0.39,,2013-06-28 18:02:00,
2013-06-28 14:12:00,66.0,-99.9,-100.00,North,-999,-999.0,-999.0,-999,0.00,,,0.39,,2013-06-28 18:12:00,
2013-06-28 14:43:00,69.0,-99.9,-100.00,North,-999,-999.0,-999.0,-999,0.00,,,0.39,,2013-06-28 18:43:00,
2013-06-28 14:52:00,69.0,-99.9,-100.00,North,-999,-999.0,-999.0,-999,0.00,,,0.39,,2013-06-28 18:52:00,
2013-06-28 15:11:00,69.0,-99.9,-100.00,North,-999,-999.0,-999.0,-999,0.00,,,0.39,,2013-06-28 19:11:00,
2013-06-28 15:43:00,71.0,-99.9,-100.00,North,-999,-999.0,-999.0,-999,0.00,,,0.39,,2013-06-28 19:43:00,
2013-06-28 15:53:00,71.0,-99.9,-100.00,North,-999,-999.0,-999.0,-999,0.00,,,0.39,,2013-06-28 19:53:00,
2013-06-28 16:02:00,71.0,-99.9,-100.00,North,-999,-999.0,-999.0,-999,0.00,,,0.39,,2013-06-28 20:02:00,
2013-06-28 16:11:00,71.0,-99.9,-100.00,North,-999,-999.0,-999.0,-999,0.00,,,0.39,,2013-06-28 20:11:00,
2013-06-28 16:44:00,71.0,-99.9,-100.00,North,-999,-999.0,-999.0,-999,0.00,,,0.39,,2013-06-28 20:44:00,
2013-06-28 16:52:00,71.0,-99.9,-100.00,North,-999,-999.0,-999.0,-999,0.00,,,0.39,,2013-06-28 20:52:00,
2013-06-28 17:02:00,71.0,-99.9,-100.00,North,-999,-999.0,-999.0,-999,0.00,,,0.39,,2013-06-28 21:02:00,
2013-06-28 17:11:00,71.0,-99.9,-100.00,North,-999,-999.0,-999.0,-999,0.00,,,0.39,,2013-06-28 21:11:00,
2013-06-28 17:43:00,72.0,-99.9,-100.00,North,-999,-999.0,-999.0,-999,0.00,,,-99.99,,2013-06-28 21:43:00,
2013-06-28 17:53:00,72.0,-99.9,-100.00,North,-999,-999.0,-999.0,-999,0.00,,,-99.99,,2013-06-28 21:53:00,
2013-06-28 18:01:00,72.0,-99.9,-100.00,North,-999,-999.0,-999.0,-999,0.00,,,-99.99,,2013-06-28 22:01:00,
2013-06-28 18:11:00,72.0,-99.9,-100.00,North,-999,-999.0,-999.0,-999,0.00,,,-99.99,,2013-06-28 22:11:00,
2013-06-28 18:43:00,72.0,-99.9,-100.00,North,-999,-999.0,-999.0,-999,0.00,,,0.39,,2013-06-28 22:43:00,
2013-06-28 18:53:00,72.0,-99.9,-100.00,North,-999,-999.0,-999.0,-999,0.00,,,0.39,,2013-06-28 22:53:00,
2013-06-28 19:02:00,72.0,-99.9,-100.00,North,-999,-999.0,-999.0,-999,0.00,,,0.39,,2013-06-28 23:02:00,
2013-06-28 19:12:00,72.0,-99.9,-100.00,North,-999,-999.0,-999.0,-999,0.00,,,0.39,,2013-06-28 23:12:00,
2013-06-28 19:43:00,71.0,-99.9,-100.00,North,-999,-999.0,-999.0,-999,0.00,,,0.39,,2013-06-28 23:43:00,
2013-06-28 19:53:00,71.0,-99.9,-100.00,North,-999,-999.0,-999.0,-999,0.00,,,0.39,,2013-06-28 23:53:00,
2013-06-28 20:02:00,71.0,-99.9,-100.00,North,-999,-999.0,-999.0,-999,0.00,,,0.39,,2013-06-29 00:02:00,
2013-06-28 20:12:00,71.0,-99.9,-100.00,North,-999,-999.0,-999.0,-999,0.00,,,0.39,,2013-06-29 00:12:00,
2013-06-28 20:42:00,68.0,-99.9,-100.00,North,-999,-999.0,-999.0,-999,0.00,,,0.36,,2013-06-29 00:42:00,
2013-06-28 20:52:00,68.0,-99.9,-100.00,North,-999,-999.0,-999.0,-999,0.00,,,0.36,,2013-06-29 00:52:00,
2013-06-28 21:01:00,68.0,-99.9,-100.00,North,-999,-999.0,-999.0,-999,0.00,,,0.36,,2013-06-29 01:01:00,
2013-06-28 21:11:00,68.0,-99.9,-100.00,North,-999,-999.0,-999.0,-999,0.00,,,0.36,,2013-06-29 01:11:00,
2013-06-28 21:42:00,67.0,-99.9,-100.00,North,-999,-999.0,-999.0,-999,0.00,,,0.35,,2013-06-29 01:42:00,
2013-06-28 21:52:00,67.0,-99.9,-100.00,North,-999,-999.0,-999.0,-999,0.00,,,0.35,,2013-06-29 01:52:00,
2013-06-28 22:01:00,67.0,-99.9,-100.00,North,-999,-999.0,-999.0,-999,0.00,,,0.35,,2013-06-29 02:01:00,
2013-06-28 22:11:00,67.0,-99.9,-100.00,North,-999,-999.0,-999.0,-999,0.00,,,0.35,,2013-06-29 02:11:00,
2013-06-28 22:41:00,66.0,-99.9,-100.00,North,-999,-999.0,-999.0,-999,0.00,,,0.35,,2013-06-29 02:41:00,
2013-06-28 22:52:00,66.0,-99.9,-100.00,North,-999,-999.0,-999.0,-999,0.00,,,0.35,,2013-06-29 02:52:00,
2013-06-28 23:01:00,66.0,-99.9,-100.00,North,-999,-999.0,-999.0,-999,0.00,,,0.35,,2013-06-29 03:01:00,
2013-06-28 23:11:00,66.0,-99.9,-100.00,North,-999,-999.0,-999.0,-999,0.00,,,0.35,,2013-06-29 03:11:00,
2013-06-28 23:41:00,63.0,-99.9,-100.00,North,-999,-999.0,-999.0,-999,0.00,,,0.35,,2013-06-29 03:41:00,
2013-06-28 23:51:00,63.0,-99.9,-100.00,North,-999,-999.0,-999.0,-999,0.00,,,0.35,,2013-06-29 03:51:00,